Flag for Poland Weather past 2 weeks in Rybnik, Poland

Now
50 °F

Passing clouds.


Feels Like: 47 °F
Forecast: 46 / 52 °F
Wind: 7 mph from West

Location: Katowice Airport

Current Time: Sep 22, 2014 at 8:34:24 PM

Latest Report: Sep 22, 2014 at 8:00 PM


Visibility: N/A

Pressure: 29.80 "Hg

Humidity: 82%

Dew point: 45 °F

Location of RybnikLocation

Historic Weather in Rybnik — Graph

°F

Rybnik temperature yesterday

Maximum temperature yesterday: 70 °F (at 4:30 PM)
Minimum temperature yesterday: 55 °F (at 1:00 AM)
Average temperature yesterday: 62 °F

Past Weeks' High & Low Weather Summary

 TemperatureHumidityPressure
High79 °F (Sep 8, 3:00 PM)100% (Sep 8, 12:30 AM)30.27 "Hg (Sep 8, 12:30 AM)
Low46 °F (Sep 13, 5:30 AM)38% (Sep 19, 1:00 PM)29.71 "Hg (Sep 22, 3:30 AM)
Average61 °F81%30.01 "Hg
* Reported Sep 7 7:00 PM — Sep 22 7:30 PM, Rybnik, Weather by CustomWeather, © 2014

Note: Actual official high and low records may vary slightly from our data, if they occured in-between our weather recording intervals... More about our weather records

Advertising

Rybnik weather history for previous 24 hours

 ConditionsComfort  
Time TempWeatherWind HumidityBarometerVisibility
7:30 PM
Sep 22
50 °FPassing clouds.8 mph82%29.80 "HgN/A
7:00 PM52 °FSunny.8 mph77%29.80 "Hg10 mi
6:30 PM54 °FPassing clouds.12 mph72%29.77 "HgN/A
6:00 PM55 °FPassing clouds.10 mph72%29.77 "HgN/A
5:30 PM55 °FPassing clouds.12 mph72%29.77 "HgN/A
5:00 PM54 °FPassing clouds.13 mph77%29.77 "HgN/A
4:30 PM55 °FPassing clouds.12 mph82%29.77 "HgN/A
4:00 PM54 °FPassing clouds.15 mph82%29.77 "HgN/A
3:30 PM55 °FPassing clouds.13 mph77%29.77 "HgN/A
3:00 PM52 °FPartly sunny.13 mph94%29.77 "HgN/A
2:30 PM52 °FSprinkles. Broken clouds.12 mph94%29.77 "Hg5 mi
2:00 PM54 °FSprinkles. Scattered clouds.12 mph88%29.77 "HgN/A
1:30 PM54 °FBroken clouds.12 mph82%29.77 "HgN/A
1:00 PM54 °FSprinkles. Partly sunny.14 mph88%29.77 "HgN/A
12:30 PM55 °FSprinkles. Broken clouds.16 mph77%29.77 "HgN/A
12:00 PM54 °FPartly sunny.15 mph82%29.77 "HgN/A
11:30 AM54 °FBroken clouds.15 mph82%29.77 "HgN/A
11:00 AM54 °FBroken clouds.17 mph82%29.80 "HgN/A
10:30 AM54 °FBroken clouds.20 mph82%29.77 "HgN/A
10:00 AM54 °FPartly sunny.18 mph88%29.77 "Hg5 mi
9:30 AM54 °FSprinkles. Broken clouds.15 mph94%29.77 "Hg5 mi
9:00 AM54 °FBroken clouds.15 mph94%29.77 "Hg5 mi
8:30 AM52 °FLight rain. Broken clouds.10 mph100%29.77 "Hg5 mi
8:00 AM52 °FLight rain. Broken clouds.10 mph100%29.77 "Hg5 mi
7:30 AM52 °FLight rain. Broken clouds.12 mph94%29.77 "Hg5 mi
7:00 AM52 °FLight rain. Partly cloudy.9 mph94%29.74 "Hg5 mi
6:30 AM52 °FSprinkles. Passing clouds.9 mph94%29.74 "Hg4 mi
6:00 AM52 °FSprinkles. Partly cloudy.13 mph94%29.74 "Hg4 mi
5:30 AM52 °FSprinkles. Partly cloudy.22 mph94%29.74 "Hg5 mi
5:00 AM55 °FLight rain. Fog.7 mph100%29.71 "Hg2 mi
4:30 AM57 °FRain. Fog.8 mph94%29.71 "Hg3 mi
4:00 AM57 °FLight rain. Fog.9 mph94%29.71 "Hg3 mi
3:30 AM57 °FSprinkles. Fog.10 mph100%29.71 "Hg2 mi
3:00 AM59 °FRain showers. Fog.7 mph100%29.74 "Hg1 mi
2:00 AM59 °FRain showers. Fog.8 mph100%29.74 "Hg2 mi
1:30 AM59 °FSprinkles. Fog.7 mph100%29.74 "Hg1 mi
1:00 AM59 °FSprinkles. Fog.5 mph100%29.74 "Hg2 mi
12:30 AM59 °FFog.5 mph100%29.74 "Hg2 mi
12:00 AM59 °FSprinkles. Fog.5 mph100%29.77 "Hg2 mi
11:30 PM
Sep 21
59 °FSprinkles. Passing clouds.5 mph94%29.77 "Hg4 mi
11:00 PM61 °FSprinkles. Passing clouds.6 mph88%29.77 "Hg4 mi
10:30 PM61 °FSprinkles. Passing clouds.7 mph88%29.77 "HgN/A
10:00 PM61 °FPassing clouds.6 mph88%29.80 "HgN/A
9:30 PM61 °FPassing clouds.6 mph88%29.80 "HgN/A
9:00 PM63 °FPassing clouds.5 mph83%29.80 "HgN/A
8:30 PM63 °FPassing clouds.6 mph83%29.80 "HgN/A
8:00 PM63 °FPassing clouds.5 mph83%29.80 "HgN/A
Weather by CustomWeather, © 2014

See weather overviewHow to use our weather pages